Location: Prairie Dale
(45.6972°N, 104.5033°W)
Time: 22:16:51
(UTC+00:00)

STARS - Pass Details

Date: 06 July 2022
Orbit: 620 x 637 km, 98.2° (Epoch: 16 August)

Event Time Altitude Azimuth Distance (km) Brightness Sun altitude
Rises 06:26:16 0° 5° (N) 2,930 ? -21.1°
Reaches altitude 10° 06:28:36 10° 357° (N) 2,014 ? -21.2°
Maximum altitude 06:32:36 36° 292° (WNW) 1,002 ? -21.3°
Enters shadow 06:34:31 24° 244° (WSW) 1,303 ? -21.3°
